Location: Budapest
(47.4979°N, 19.0402°E)
Time: 09:53:50
(UTC+02:00)

Tiangong 2 - Visible Passes

Search period start: 17 October 2017 00:00
Search period end: 27 October 2017 00:00
Orbit: 388 x 392 km, 42.8° (Epoch: 16 October)

Date Brightness Start Highest point End Pass type
(mag) Time Alt. Az. Time Alt. Az. Time Alt. Az.
17 Oct 2.6 05:08:45 28° SSE 05:08:45 28° SSE 05:11:00 10° ESE visible
18 Oct 2.8 05:46:05 19° SW 05:46:47 20° SSW 05:49:13 10° SSE visible
19 Oct 3.8 04:51:08 14° SE 04:51:08 14° SE 04:51:49 10° SE visible
20 Oct 3.6 05:28:35 13° S 05:28:35 13° S 05:29:25 10° S visible
